Time,TemperatureF,DewpointF,PressureIn,WindDirection,WindDirectionDegrees,WindSpeedMPH,WindSpeedGustMPH,Humidity,HourlyPrecipIn,Conditions,Clouds,dailyrainin,SolarRadiationWatts/m^2,SoftwareType,DateUTC
2013-09-29 00:01:00,63.1,58.8,30.07,SW,219,3.0,3.0,86,0.00,,,0.00,0,Wunderground v.1.15,2013-09-29 04:01:00,
2013-09-29 00:02:00,63.1,58.8,30.06,SW,219,1.0,3.0,86,0.00,,,0.00,0,Wunderground v.1.15,2013-09-29 04:02:00,
2013-09-29 00:07:00,63.1,58.8,30.06,SW,223,1.0,4.0,86,0.00,,,0.00,0,Wunderground v.1.15,2013-09-29 04:07:00,
2013-09-29 00:12:00,63.0,58.7,30.06,SW,223,1.0,3.0,86,0.00,,,0.00,0,Wunderground v.1.15,2013-09-29 04:12:00,
2013-09-29 00:17:00,62.8,58.9,30.06,SW,223,0.0,3.0,87,0.00,,,0.00,0,Wunderground v.1.15,2013-09-29 04:17:00,
2013-09-29 00:22:00,62.7,58.8,30.06,SW,223,0.0,3.0,87,0.00,,,0.00,0,Wunderground v.1.15,2013-09-29 04:22:00,
2013-09-29 00:27:00,62.6,58.7,30.06,SW,223,2.0,3.0,87,0.00,,,0.00,0,Wunderground v.1.15,2013-09-29 04:27:00,
2013-09-29 00:32:00,62.5,58.6,30.06,SW,223,1.0,4.0,87,0.00,,,0.00,0,Wunderground v.1.15,2013-09-29 04:32:00,
2013-09-29 00:37:00,62.5,58.6,30.06,SW,223,1.0,4.0,87,0.00,,,0.00,0,Wunderground v.1.15,2013-09-29 04:37:00,
2013-09-29 00:42:00,62.5,58.9,30.06,SW,223,1.0,3.0,88,0.00,,,0.00,0,Wunderground v.1.15,2013-09-29 04:42:00,
2013-09-29 00:47:00,62.3,58.4,30.06,SW,223,1.0,3.0,87,0.00,,,0.00,0,Wunderground v.1.15,2013-09-29 04:47:00,
2013-09-29 00:52:00,62.1,58.5,30.06,SW,223,2.0,3.0,88,0.00,,,0.00,0,Wunderground v.1.15,2013-09-29 04:52:00,
2013-09-29 00:57:00,62.0,58.4,30.06,SW,223,1.0,3.0,88,0.00,,,0.00,0,Wunderground v.1.15,2013-09-29 04:57:00,
2013-09-29 01:02:00,61.9,58.3,30.06,SW,223,3.0,4.0,88,0.00,,,0.00,0,Wunderground v.1.15,2013-09-29 05:02:00,
2013-09-29 01:07:00,61.7,58.4,30.06,SW,223,0.0,4.0,89,0.00,,,0.00,0,Wunderground v.1.15,2013-09-29 05:07:00,
2013-09-29 01:12:00,61.5,58.2,30.06,SW,223,0.0,2.0,89,0.00,,,0.00,0,Wunderground v.1.15,2013-09-29 05:12:00,
2013-09-29 01:17:00,61.3,58.0,30.06,SW,223,2.0,2.0,89,0.00,,,0.00,0,Wunderground v.1.15,2013-09-29 05:17:00,
2013-09-29 01:22:00,61.2,57.9,30.06,SW,223,2.0,3.0,89,0.00,,,0.00,0,Wunderground v.1.15,2013-09-29 05:22:00,
2013-09-29 01:27:00,61.0,57.7,30.06,SW,223,0.0,3.0,89,0.00,,,0.00,0,Wunderground v.1.15,2013-09-29 05:27:00,
2013-09-29 01:32:00,60.8,57.5,30.06,SW,223,0.0,3.0,89,0.00,,,0.00,0,Wunderground v.1.15,2013-09-29 05:32:00,
2013-09-29 01:37:00,60.5,57.6,30.06,SW,223,0.0,3.0,90,0.00,,,0.00,0,Wunderground v.1.15,2013-09-29 05:37:00,
2013-09-29 01:42:00,60.5,57.6,30.06,SW,223,0.0,2.0,90,0.00,,,0.00,0,Wunderground v.1.15,2013-09-29 05:42:00,
2013-09-29 01:47:00,60.2,57.3,30.06,SW,218,2.0,2.0,90,0.00,,,0.00,0,Wunderground v.1.15,2013-09-29 05:47:00,
2013-09-29 01:52:00,60.2,57.6,30.06,SW,218,2.0,2.0,91,0.00,,,0.00,0,Wunderground v.1.15,2013-09-29 05:52:00,
2013-09-29 01:57:00,60.2,57.3,30.05,SW,218,0.0,2.0,90,0.00,,,0.00,0,Wunderground v.1.15,2013-09-29 05:57:00,
2013-09-29 02:02:00,60.1,57.5,30.06,SW,218,1.0,1.0,91,0.00,,,0.00,0,Wunderground v.1.15,2013-09-29 06:02:00,
2013-09-29 02:07:00,60.2,57.3,30.06,SW,218,1.0,2.0,90,0.00,,,0.00,0,Wunderground v.1.15,2013-09-29 06:07:00,
2013-09-29 02:12:00,60.0,57.1,30.05,SW,218,0.0,1.0,90,0.00,,,0.00,0,Wunderground v.1.15,2013-09-29 06:12:00,
2013-09-29 02:17:00,59.9,57.3,30.05,SW,218,1.0,1.0,91,0.00,,,0.00,0,Wunderground v.1.15,2013-09-29 06:17:00,
2013-09-29 02:22:00,60.0,57.4,30.05,SW,218,0.0,2.0,91,0.00,,,0.00,0,Wunderground v.1.15,2013-09-29 06:22:00,
2013-09-29 02:27:00,59.9,57.3,30.05,SW,218,0.0,2.0,91,0.00,,,0.00,0,Wunderground v.1.15,2013-09-29 06:27:00,
2013-09-29 02:32:00,59.9,57.3,30.05,SW,218,0.0,1.0,91,0.00,,,0.00,0,Wunderground v.1.15,2013-09-29 06:32:00,
2013-09-29 02:37:00,59.8,57.2,30.05,SW,218,0.0,1.0,91,0.00,,,0.00,0,Wunderground v.1.15,2013-09-29 06:37:00,
2013-09-29 02:42:00,59.9,57.3,30.05,SW,218,0.0,0.0,91,0.00,,,0.00,0,Wunderground v.1.15,2013-09-29 06:42:00,
2013-09-29 02:47:00,60.0,57.4,30.05,SW,218,0.0,2.0,91,0.00,,,0.00,0,Wunderground v.1.15,2013-09-29 06:47:00,
2013-09-29 02:52:00,59.9,57.0,30.05,SW,218,0.0,1.0,90,0.00,,,0.00,0,Wunderground v.1.15,2013-09-29 06:52:00,
2013-09-29 02:57:00,59.7,56.8,30.05,SW,218,0.0,1.0,90,0.00,,,0.00,0,Wunderground v.1.15,2013-09-29 06:57:00,
2013-09-29 03:02:00,59.5,56.9,30.05,SW,218,1.0,1.0,91,0.00,,,0.00,0,Wunderground v.1.15,2013-09-29 07:02:00,
2013-09-29 03:07:00,59.6,57.0,30.05,SW,218,1.0,2.0,91,0.00,,,0.00,0,Wunderground v.1.15,2013-09-29 07:07:00,
2013-09-29 03:13:00,59.7,57.1,30.05,SW,218,0.0,1.0,91,0.00,,,0.00,0,Wunderground v.1.15,2013-09-29 07:13:00,
2013-09-29 03:17:00,59.6,57.0,30.04,SW,218,1.0,2.0,91,0.00,,,0.00,0,Wunderground v.1.15,2013-09-29 07:17:00,
2013-09-29 03:23:00,59.7,56.8,30.04,SW,218,0.0,2.0,90,0.00,,,0.00,0,Wunderground v.1.15,2013-09-29 07:23:00,
2013-09-29 03:28:00,59.6,56.7,30.05,SW,218,1.0,2.0,90,0.00,,,0.00,0,Wunderground v.1.15,2013-09-29 07:28:00,
2013-09-29 03:33:00,59.5,56.6,30.05,SW,218,0.0,2.0,90,0.00,,,0.00,0,Wunderground v.1.15,2013-09-29 07:33:00,
2013-09-29 03:38:00,59.5,56.6,30.05,SW,218,0.0,1.0,90,0.00,,,0.00,0,Wunderground v.1.15,2013-09-29 07:38:00,
2013-09-29 03:43:00,59.6,57.0,30.05,SW,218,0.0,3.0,91,0.00,,,0.00,0,Wunderground v.1.15,2013-09-29 07:43:00,
2013-09-29 03:48:00,59.6,57.0,30.05,SW,218,0.0,1.0,91,0.00,,,0.00,0,Wunderground v.1.15,2013-09-29 07:48:00,
2013-09-29 03:53:00,59.6,56.7,30.05,SW,218,0.0,1.0,90,0.00,,,0.00,0,Wunderground v.1.15,2013-09-29 07:53:00,
2013-09-29 03:58:00,59.4,56.5,30.04,SW,218,0.0,0.0,90,0.00,,,0.00,0,Wunderground v.1.15,2013-09-29 07:58:00,
2013-09-29 04:03:00,59.2,56.3,30.04,SW,218,0.0,0.0,90,0.00,,,0.00,0,Wunderground v.1.15,2013-09-29 08:03:00,
2013-09-29 04:08:00,59.0,56.1,30.04,SW,218,0.0,0.0,90,0.00,,,0.00,0,Wunderground v.1.15,2013-09-29 08:08:00,
2013-09-29 04:13:00,58.8,56.2,30.04,SW,218,0.0,0.0,91,0.00,,,0.00,0,Wunderground v.1.15,2013-09-29 08:13:00,
2013-09-29 04:18:00,58.7,56.1,30.04,SW,218,0.0,0.0,91,0.00,,,0.00,0,Wunderground v.1.15,2013-09-29 08:18:00,
2013-09-29 04:23:00,58.7,56.1,30.04,SW,218,0.0,0.0,91,0.00,,,0.00,0,Wunderground v.1.15,2013-09-29 08:23:00,
2013-09-29 04:28:00,58.8,56.5,30.04,SW,218,0.0,0.0,92,0.00,,,0.00,0,Wunderground v.1.15,2013-09-29 08:28:00,
2013-09-29 04:33:00,58.7,56.1,30.04,SW,218,0.0,0.0,91,0.00,,,0.00,0,Wunderground v.1.15,2013-09-29 08:33:00,
2013-09-29 04:38:00,58.6,56.0,30.04,SW,218,0.0,0.0,91,0.00,,,0.00,0,Wunderground v.1.15,2013-09-29 08:38:00,
2013-09-29 04:43:00,58.5,56.2,30.04,SW,218,0.0,0.0,92,0.00,,,0.00,0,Wunderground v.1.15,2013-09-29 08:43:00,
2013-09-29 04:48:00,58.4,56.1,30.04,SW,218,0.0,0.0,92,0.00,,,0.00,0,Wunderground v.1.15,2013-09-29 08:48:00,
2013-09-29 04:53:00,58.4,56.1,30.04,SW,218,0.0,1.0,92,0.00,,,0.00,0,Wunderground v.1.15,2013-09-29 08:53:00,
2013-09-29 04:58:00,58.4,56.1,30.04,SW,218,0.0,0.0,92,0.00,,,0.00,0,Wunderground v.1.15,2013-09-29 08:58:00,
2013-09-29 05:03:00,58.4,56.1,30.04,SW,218,0.0,1.0,92,0.00,,,0.00,0,Wunderground v.1.15,2013-09-29 09:03:00,
2013-09-29 05:08:00,58.4,56.1,30.05,SW,218,1.0,1.0,92,0.00,,,0.00,0,Wunderground v.1.15,2013-09-29 09:08:00,
2013-09-29 05:13:00,58.4,56.1,30.04,SW,218,0.0,1.0,92,0.00,,,0.00,0,Wunderground v.1.15,2013-09-29 09:13:00,
2013-09-29 05:18:00,58.5,56.2,30.04,SW,218,0.0,0.0,92,0.00,,,0.00,0,Wunderground v.1.15,2013-09-29 09:18:00,
2013-09-29 05:23:00,58.6,56.3,30.04,SW,218,0.0,2.0,92,0.00,,,0.00,0,Wunderground v.1.15,2013-09-29 09:23:00,
2013-09-29 05:28:00,58.6,56.3,30.04,SW,218,0.0,0.0,92,0.00,,,0.00,0,Wunderground v.1.15,2013-09-29 09:28:00,
2013-09-29 05:33:00,58.8,56.5,30.04,SW,218,0.0,1.0,92,0.00,,,0.00,0,Wunderground v.1.15,2013-09-29 09:33:00,
2013-09-29 05:38:00,58.9,56.6,30.04,SW,218,0.0,0.0,92,0.00,,,0.00,0,Wunderground v.1.15,2013-09-29 09:38:00,
2013-09-29 05:43:00,58.9,56.6,30.04,SW,218,0.0,1.0,92,0.00,,,0.00,0,Wunderground v.1.15,2013-09-29 09:43:00,
2013-09-29 05:48:00,58.8,56.2,30.04,SW,218,0.0,0.0,91,0.00,,,0.00,0,Wunderground v.1.15,2013-09-29 09:48:00,
2013-09-29 05:53:00,58.6,56.0,30.04,SW,218,0.0,0.0,91,0.00,,,0.00,0,Wunderground v.1.15,2013-09-29 09:53:00,
2013-09-29 05:58:00,58.6,56.0,30.04,SW,218,0.0,0.0,91,0.00,,,0.00,0,Wunderground v.1.15,2013-09-29 09:58:00,
2013-09-29 06:03:00,58.6,56.3,30.05,SW,218,0.0,0.0,92,0.00,,,0.00,0,Wunderground v.1.15,2013-09-29 10:03:00,
2013-09-29 06:08:00,58.4,56.1,30.05,SW,218,0.0,0.0,92,0.00,,,0.00,0,Wunderground v.1.15,2013-09-29 10:08:00,
2013-09-29 06:13:00,58.5,56.2,30.05,SW,218,0.0,0.0,92,0.00,,,0.00,0,Wunderground v.1.15,2013-09-29 10:13:00,
2013-09-29 06:18:00,58.4,56.1,30.05,SW,218,0.0,0.0,92,0.00,,,0.00,0,Wunderground v.1.15,2013-09-29 10:18:00,
2013-09-29 06:23:00,58.4,56.1,30.05,SW,218,1.0,1.0,92,0.00,,,0.00,0,Wunderground v.1.15,2013-09-29 10:23:00,
2013-09-29 06:28:00,58.2,55.9,30.05,SW,218,0.0,0.0,92,0.00,,,0.00,0,Wunderground v.1.15,2013-09-29 10:28:00,
2013-09-29 06:33:00,58.1,55.8,30.05,SW,218,0.0,1.0,92,0.00,,,0.00,0,Wunderground v.1.15,2013-09-29 10:33:00,
2013-09-29 06:38:00,57.9,55.6,30.05,SW,218,1.0,1.0,92,0.00,,,0.00,0,Wunderground v.1.15,2013-09-29 10:38:00,
2013-09-29 06:43:00,57.7,55.4,30.06,SW,218,1.0,1.0,92,0.00,,,0.00,0,Wunderground v.1.15,2013-09-29 10:43:00,
2013-09-29 06:48:00,57.7,55.7,30.06,SW,218,0.0,1.0,93,0.00,,,0.00,0,Wunderground v.1.15,2013-09-29 10:48:00,
2013-09-29 06:53:00,57.8,55.8,30.06,SW,218,2.0,3.0,93,0.00,,,0.00,0,Wunderground v.1.15,2013-09-29 10:53:00,
2013-09-29 06:58:00,57.9,55.9,30.06,SW,223,0.0,2.0,93,0.00,,,0.00,0,Wunderground v.1.15,2013-09-29 10:58:00,
2013-09-29 07:03:00,58.1,56.1,30.06,SW,227,2.0,3.0,93,0.00,,,0.00,0,Wunderground v.1.15,2013-09-29 11:03:00,
2013-09-29 07:08:00,58.4,56.4,30.06,SW,228,1.0,2.0,93,0.00,,,0.00,0,Wunderground v.1.15,2013-09-29 11:08:00,
2013-09-29 07:14:00,58.7,56.7,30.06,SW,221,2.0,3.0,93,0.00,,,0.00,0,Wunderground v.1.15,2013-09-29 11:14:00,
2013-09-29 07:19:00,59.1,57.1,30.06,WSW,238,2.0,4.0,93,0.00,,,0.00,0,Wunderground v.1.15,2013-09-29 11:19:00,
2013-09-29 07:24:00,59.6,57.3,30.06,SW,227,3.0,5.0,92,0.00,,,0.00,0,Wunderground v.1.15,2013-09-29 11:24:00,
2013-09-29 07:29:00,59.8,57.2,30.06,WSW,242,1.0,6.0,91,0.00,,,0.00,0,Wunderground v.1.15,2013-09-29 11:29:00,
2013-09-29 07:34:00,60.0,57.1,30.06,SW,233,3.0,6.0,90,0.00,,,0.00,0,Wunderground v.1.15,2013-09-29 11:34:00,
2013-09-29 07:39:00,60.2,57.3,30.06,WSW,242,4.0,4.0,90,0.00,,,0.00,5,Wunderground v.1.15,2013-09-29 11:39:00,
2013-09-29 07:44:00,60.3,57.0,30.06,SW,231,1.0,6.0,89,0.00,,,0.00,9,Wunderground v.1.15,2013-09-29 11:44:00,
2013-09-29 07:49:00,60.3,57.0,30.06,SW,234,0.0,4.0,89,0.00,,,0.00,14,Wunderground v.1.15,2013-09-29 11:49:00,
2013-09-29 07:54:00,60.2,56.9,30.06,SSW,210,2.0,4.0,89,0.00,,,0.00,23,Wunderground v.1.15,2013-09-29 11:54:00,
2013-09-29 07:59:00,60.3,57.0,30.06,SW,215,2.0,3.0,89,0.00,,,0.00,35,Wunderground v.1.15,2013-09-29 11:59:00,
2013-09-29 08:04:00,60.4,57.1,30.06,SW,219,2.0,4.0,89,0.00,,,0.00,53,Wunderground v.1.15,2013-09-29 12:04:00,
2013-09-29 08:09:00,60.8,57.2,30.06,SW,224,5.0,5.0,88,0.00,,,0.00,63,Wunderground v.1.15,2013-09-29 12:09:00,
2013-09-29 08:14:00,61.0,57.4,30.06,SSW,213,4.0,5.0,88,0.00,,,0.00,76,Wunderground v.1.15,2013-09-29 12:14:00,
2013-09-29 08:19:00,61.1,57.5,30.06,SW,219,4.0,4.0,88,0.00,,,0.00,97,Wunderground v.1.15,2013-09-29 12:19:00,
2013-09-29 08:24:00,61.4,57.8,30.06,SW,236,3.0,5.0,88,0.00,,,0.00,118,Wunderground v.1.15,2013-09-29 12:24:00,
2013-09-29 08:29:00,62.1,58.5,30.06,SW,227,2.0,3.0,88,0.00,,,0.00,139,Wunderground v.1.15,2013-09-29 12:29:00,
2013-09-29 08:34:00,62.9,58.6,30.06,WSW,249,5.0,6.0,86,0.00,,,0.00,162,Wunderground v.1.15,2013-09-29 12:34:00,
2013-09-29 08:39:00,63.4,58.8,30.06,WSW,252,6.0,6.0,85,0.00,,,0.00,185,Wunderground v.1.15,2013-09-29 12:39:00,
2013-09-29 08:44:00,63.9,59.0,30.06,WSW,258,5.0,9.0,84,0.00,,,0.00,200,Wunderground v.1.15,2013-09-29 12:44:00,
2013-09-29 08:49:00,64.2,58.9,30.06,WSW,239,7.0,7.0,83,0.00,,,0.00,216,Wunderground v.1.15,2013-09-29 12:49:00,
2013-09-29 08:54:00,64.5,58.9,30.06,WSW,248,4.0,9.0,82,0.00,,,0.00,232,Wunderground v.1.15,2013-09-29 12:54:00,
2013-09-29 08:59:00,64.8,59.2,30.06,WSW,238,7.0,9.0,82,0.00,,,0.00,262,Wunderground v.1.15,2013-09-29 12:59:00,
2013-09-29 09:04:00,65.0,59.4,30.06,WSW,246,5.0,11.0,82,0.00,,,0.00,290,Wunderground v.1.15,2013-09-29 13:04:00,
2013-09-29 09:09:00,65.5,59.9,30.06,WSW,240,6.0,9.0,82,0.00,,,0.00,325,Wunderground v.1.15,2013-09-29 13:09:00,
2013-09-29 09:14:00,65.8,59.8,30.06,SW,234,4.0,11.0,81,0.00,,,0.00,353,Wunderground v.1.15,2013-09-29 13:14:00,
2013-09-29 09:19:00,66.1,59.7,30.06,WSW,239,6.0,8.0,80,0.00,,,0.00,360,Wunderground v.1.15,2013-09-29 13:19:00,
2013-09-29 09:24:00,66.4,60.4,30.06,WSW,246,3.0,9.0,81,0.00,,,0.00,364,Wunderground v.1.15,2013-09-29 13:24:00,
2013-09-29 09:29:00,66.7,60.0,30.06,West,273,7.0,12.0,79,0.00,,,0.00,383,Wunderground v.1.15,2013-09-29 13:29:00,
2013-09-29 09:34:00,66.8,59.7,30.06,WSW,247,13.0,16.0,78,0.00,,,0.00,415,Wunderground v.1.15,2013-09-29 13:34:00,
2013-09-29 09:39:00,67.0,59.5,30.06,WSW,245,8.0,10.0,77,0.00,,,0.00,343,Wunderground v.1.15,2013-09-29 13:39:00,
2013-09-29 09:44:00,67.5,59.7,30.06,West,259,5.0,10.0,76,0.00,,,0.00,552,Wunderground v.1.15,2013-09-29 13:44:00,
2013-09-29 09:49:00,68.1,59.9,30.06,SW,223,8.0,10.0,75,0.00,,,0.00,557,Wunderground v.1.15,2013-09-29 13:49:00,
2013-09-29 09:54:00,68.3,59.7,30.06,West,271,6.0,12.0,74,0.00,,,0.00,281,Wunderground v.1.15,2013-09-29 13:54:00,
2013-09-29 09:59:00,68.0,58.6,30.06,West,275,7.0,14.0,72,0.00,,,0.00,199,Wunderground v.1.15,2013-09-29 13:59:00,
2013-09-29 10:04:00,67.5,58.5,30.06,WSW,247,12.0,14.0,73,0.00,,,0.00,237,Wunderground v.1.15,2013-09-29 14:04:00,
2013-09-29 10:09:00,67.4,58.8,30.06,WSW,255,10.0,10.0,74,0.00,,,0.00,322,Wunderground v.1.15,2013-09-29 14:09:00,
2013-09-29 10:14:00,67.7,58.7,30.06,West,279,10.0,16.0,73,0.00,,,0.00,464,Wunderground v.1.15,2013-09-29 14:14:00,
2013-09-29 10:19:00,68.2,58.8,30.06,WSW,258,6.0,11.0,72,0.00,,,0.00,494,Wunderground v.1.15,2013-09-29 14:19:00,
2013-09-29 10:24:00,68.5,58.7,30.06,West,273,11.0,12.0,71,0.00,,,0.00,339,Wunderground v.1.15,2013-09-29 14:24:00,
2013-09-29 10:29:00,68.7,58.9,30.06,West,275,6.0,11.0,71,0.00,,,0.00,323,Wunderground v.1.15,2013-09-29 14:29:00,
2013-09-29 10:34:00,69.0,59.2,30.06,WSW,257,8.0,11.0,71,0.00,,,0.00,323,Wunderground v.1.15,2013-09-29 14:34:00,
2013-09-29 10:40:00,69.1,59.3,30.07,WSW,244,6.0,9.0,71,0.00,,,0.00,311,Wunderground v.1.15,2013-09-29 14:40:00,
2013-09-29 10:45:00,69.1,58.9,30.07,West,267,11.0,13.0,70,0.00,,,0.00,287,Wunderground v.1.15,2013-09-29 14:45:00,
2013-09-29 10:50:00,69.1,58.9,30.07,West,263,8.0,11.0,70,0.00,,,0.00,267,Wunderground v.1.15,2013-09-29 14:50:00,
2013-09-29 10:55:00,69.0,58.8,30.07,West,268,7.0,11.0,70,0.00,,,0.00,253,Wunderground v.1.15,2013-09-29 14:55:00,
2013-09-29 11:00:00,69.0,58.8,30.07,SW,236,8.0,12.0,70,0.00,,,0.00,255,Wunderground v.1.15,2013-09-29 15:00:00,
2013-09-29 11:05:00,68.9,58.7,30.06,West,263,11.0,13.0,70,0.00,,,0.00,304,Wunderground v.1.15,2013-09-29 15:05:00,
2013-09-29 11:10:00,69.0,58.8,30.06,WNW,288,9.0,13.0,70,0.00,,,0.00,506,Wunderground v.1.15,2013-09-29 15:10:00,
2013-09-29 11:15:00,69.4,59.2,30.06,SW,233,5.0,13.0,70,0.00,,,0.00,396,Wunderground v.1.15,2013-09-29 15:15:00,
2013-09-29 11:20:00,69.7,59.1,30.06,WSW,246,8.0,9.0,69,0.00,,,0.00,306,Wunderground v.1.15,2013-09-29 15:20:00,
2013-09-29 11:25:00,69.8,59.2,30.06,WSW,244,7.0,13.0,69,0.00,,,0.00,301,Wunderground v.1.15,2013-09-29 15:25:00,
2013-09-29 11:30:00,69.9,58.9,30.06,WSW,257,12.0,14.0,68,0.00,,,0.00,353,Wunderground v.1.15,2013-09-29 15:30:00,
2013-09-29 11:35:00,69.8,59.2,30.06,WSW,257,5.0,14.0,69,0.00,,,0.00,364,Wunderground v.1.15,2013-09-29 15:35:00,
2013-09-29 11:40:00,70.3,59.6,30.06,West,259,8.0,10.0,69,0.00,,,0.00,244,Wunderground v.1.15,2013-09-29 15:40:00,
2013-09-29 11:45:00,70.1,59.5,30.06,West,273,7.0,11.0,69,0.00,,,0.00,220,Wunderground v.1.15,2013-09-29 15:45:00,
2013-09-29 11:50:00,69.9,59.3,30.06,West,268,8.0,14.0,69,0.00,,,0.00,323,Wunderground v.1.15,2013-09-29 15:50:00,
2013-09-29 11:55:00,70.0,59.0,30.06,West,273,7.0,15.0,68,0.00,,,0.00,831,Wunderground v.1.15,2013-09-29 15:55:00,
2013-09-29 12:00:00,71.1,59.6,30.06,WSW,251,10.0,12.0,67,0.00,,,0.00,842,Wunderground v.1.15,2013-09-29 16:00:00,
2013-09-29 12:05:00,72.1,59.2,30.06,WSW,256,14.0,15.0,64,0.00,,,0.00,888,Wunderground v.1.15,2013-09-29 16:05:00,
2013-09-29 12:10:00,72.6,59.3,30.06,West,279,7.0,15.0,63,0.00,,,0.00,849,Wunderground v.1.15,2013-09-29 16:10:00,
2013-09-29 12:15:00,73.1,59.3,30.06,WSW,257,10.0,15.0,62,0.00,,,0.00,652,Wunderground v.1.15,2013-09-29 16:15:00,
2013-09-29 12:20:00,73.1,58.8,30.06,WNW,285,8.0,14.0,61,0.00,,,0.00,652,Wunderground v.1.15,2013-09-29 16:20:00,
2013-09-29 12:25:00,73.0,59.2,30.06,WSW,240,6.0,14.0,62,0.00,,,0.00,867,Wunderground v.1.15,2013-09-29 16:25:00,
2013-09-29 12:30:00,74.1,59.8,30.05,SW,232,8.0,11.0,61,0.00,,,0.00,1076,Wunderground v.1.15,2013-09-29 16:30:00,
2013-09-29 12:35:00,74.6,59.3,30.05,West,275,10.0,17.0,59,0.00,,,0.00,499,Wunderground v.1.15,2013-09-29 16:35:00,
2013-09-29 12:40:00,74.2,59.4,30.05,West,277,8.0,17.0,60,0.00,,,0.00,378,Wunderground v.1.15,2013-09-29 16:40:00,
2013-09-29 12:45:00,73.5,58.8,30.05,West,268,9.0,17.0,60,0.00,,,0.00,334,Wunderground v.1.15,2013-09-29 16:45:00,
2013-09-29 12:50:00,73.1,58.8,30.05,West,271,4.0,10.0,61,0.00,,,0.00,309,Wunderground v.1.15,2013-09-29 16:50:00,
2013-09-29 12:55:00,72.9,58.7,30.05,West,261,11.0,16.0,61,0.00,,,0.00,283,Wunderground v.1.15,2013-09-29 16:55:00,
2013-09-29 13:00:00,72.5,58.3,30.05,West,279,5.0,10.0,61,0.00,,,0.00,272,Wunderground v.1.15,2013-09-29 17:00:00,
2013-09-29 13:05:00,72.2,58.5,30.05,WSW,256,5.0,12.0,62,0.00,,,0.00,285,Wunderground v.1.15,2013-09-29 17:05:00,
2013-09-29 13:10:00,72.4,59.1,30.05,WSW,248,6.0,9.0,63,0.00,,,0.00,288,Wunderground v.1.15,2013-09-29 17:10:00,
2013-09-29 13:15:00,72.2,58.5,30.05,WSW,243,6.0,11.0,62,0.00,,,0.00,276,Wunderground v.1.15,2013-09-29 17:15:00,
2013-09-29 13:20:00,72.0,58.7,30.05,West,275,9.0,12.0,63,0.00,,,0.00,267,Wunderground v.1.15,2013-09-29 17:20:00,
2013-09-29 13:25:00,71.9,59.1,30.05,West,259,6.0,12.0,64,0.00,,,0.00,265,Wunderground v.1.15,2013-09-29 17:25:00,
2013-09-29 13:30:00,71.9,59.1,30.05,WSW,247,3.0,10.0,64,0.00,,,0.00,274,Wunderground v.1.15,2013-09-29 17:30:00,
2013-09-29 13:35:00,71.9,59.1,30.04,West,278,6.0,10.0,64,0.00,,,0.00,297,Wunderground v.1.15,2013-09-29 17:35:00,
2013-09-29 13:40:00,72.0,59.6,30.04,WNW,288,5.0,8.0,65,0.00,,,0.00,325,Wunderground v.1.15,2013-09-29 17:40:00,
2013-09-29 13:45:00,72.5,59.2,30.04,West,275,5.0,10.0,63,0.00,,,0.00,336,Wunderground v.1.15,2013-09-29 17:45:00,
2013-09-29 13:50:00,72.7,59.8,30.04,WSW,250,8.0,12.0,64,0.00,,,0.00,339,Wunderground v.1.15,2013-09-29 17:50:00,
2013-09-29 13:55:00,72.6,59.3,30.04,WSW,245,8.0,15.0,63,0.00,,,0.00,338,Wunderground v.1.15,2013-09-29 17:55:00,
2013-09-29 14:00:00,73.0,59.7,30.04,SW,222,6.0,13.0,63,0.00,,,0.00,438,Wunderground v.1.15,2013-09-29 18:00:00,
2013-09-29 14:05:00,74.0,59.2,30.03,WNW,290,9.0,13.0,60,0.00,,,0.00,904,Wunderground v.1.15,2013-09-29 18:05:00,
2013-09-29 14:10:00,74.0,59.2,30.03,West,273,6.0,12.0,60,0.00,,,0.00,385,Wunderground v.1.15,2013-09-29 18:10:00,
2013-09-29 14:16:00,73.8,59.0,30.03,SW,234,8.0,16.0,60,0.00,,,0.00,325,Wunderground v.1.15,2013-09-29 18:16:00,
2013-09-29 14:21:00,73.5,58.8,30.02,West,262,6.0,10.0,60,0.00,,,0.00,276,Wunderground v.1.15,2013-09-29 18:21:00,
2013-09-29 14:26:00,73.2,58.9,30.02,West,261,5.0,11.0,61,0.00,,,0.00,192,Wunderground v.1.15,2013-09-29 18:26:00,
2013-09-29 14:31:00,72.9,58.2,30.02,West,279,8.0,14.0,60,0.00,,,0.00,134,Wunderground v.1.15,2013-09-29 18:31:00,
2013-09-29 14:36:00,72.4,58.2,30.02,WNW,288,6.0,14.0,61,0.00,,,0.00,118,Wunderground v.1.15,2013-09-29 18:36:00,
2013-09-29 14:41:00,71.9,58.2,30.02,West,269,8.0,11.0,62,0.00,,,0.00,116,Wunderground v.1.15,2013-09-29 18:41:00,
2013-09-29 14:46:00,71.6,57.9,30.02,WSW,257,5.0,11.0,62,0.00,,,0.00,137,Wunderground v.1.15,2013-09-29 18:46:00,
2013-09-29 14:51:00,71.5,58.2,30.02,West,273,4.0,9.0,63,0.00,,,0.00,148,Wunderground v.1.15,2013-09-29 18:51:00,
2013-09-29 14:56:00,71.4,58.6,30.02,West,278,4.0,10.0,64,0.00,,,0.00,146,Wunderground v.1.15,2013-09-29 18:56:00,
2013-09-29 15:01:00,71.2,58.4,30.01,West,277,5.0,10.0,64,0.00,,,0.00,134,Wunderground v.1.15,2013-09-29 19:01:00,
2013-09-29 15:06:00,71.2,58.8,30.01,West,281,4.0,10.0,65,0.00,,,0.00,114,Wunderground v.1.15,2013-09-29 19:06:00,
2013-09-29 15:11:00,71.3,58.9,30.01,West,269,2.0,5.0,65,0.00,,,0.00,98,Wunderground v.1.15,2013-09-29 19:11:00,
2013-09-29 15:16:00,71.2,58.8,30.01,WSW,257,0.0,6.0,65,0.00,,,0.00,95,Wunderground v.1.15,2013-09-29 19:16:00,
2013-09-29 15:21:00,71.0,59.5,30.01,West,259,5.0,7.0,67,0.00,,,0.00,91,Wunderground v.1.15,2013-09-29 19:21:00,
2013-09-29 15:26:00,70.7,59.6,30.01,West,267,5.0,7.0,68,0.00,,,0.00,93,Wunderground v.1.15,2013-09-29 19:26:00,
2013-09-29 15:31:00,70.4,59.3,30.01,West,263,5.0,6.0,68,0.00,,,0.00,97,Wunderground v.1.15,2013-09-29 19:31:00,
2013-09-29 15:36:00,70.3,60.1,30.01,West,275,7.0,8.0,70,0.00,,,0.00,116,Wunderground v.1.15,2013-09-29 19:36:00,
2013-09-29 15:41:00,70.0,60.9,30.01,WSW,256,4.0,6.0,73,0.00,,,0.00,146,Wunderground v.1.15,2013-09-29 19:41:00,
2013-09-29 15:46:00,69.4,60.4,30.01,WNW,282,5.0,9.0,73,0.00,,,0.00,144,Wunderground v.1.15,2013-09-29 19:46:00,
2013-09-29 15:48:00,69.0,60.4,30.00,West,281,7.0,8.0,74,0.00,,,0.00,135,Wunderground v.1.15,2013-09-29 19:48:00,
2013-09-29 15:53:00,68.4,60.5,30.00,West,281,3.0,8.0,76,0.00,,,0.00,114,Wunderground v.1.15,2013-09-29 19:53:00,
2013-09-29 15:58:00,67.9,60.4,30.00,NW,314,5.0,6.0,77,0.00,,,0.00,102,Wunderground v.1.15,2013-09-29 19:58:00,
2013-09-29 16:03:00,67.6,60.5,30.01,NW,319,7.0,9.0,78,0.00,,,0.00,97,Wunderground v.1.15,2013-09-29 20:03:00,
2013-09-29 16:08:00,66.9,60.5,30.01,NW,317,5.0,6.0,80,0.00,,,0.00,104,Wunderground v.1.15,2013-09-29 20:08:00,
2013-09-29 16:13:00,66.2,60.2,30.01,North,5,4.0,7.0,81,0.00,,,0.00,100,Wunderground v.1.15,2013-09-29 20:13:00,
2013-09-29 16:18:00,65.9,60.6,30.01,NNW,333,2.0,5.0,83,0.00,,,0.00,105,Wunderground v.1.15,2013-09-29 20:18:00,
2013-09-29 16:23:00,65.7,60.4,30.01,NNW,331,6.0,6.0,83,0.00,,,0.00,102,Wunderground v.1.15,2013-09-29 20:23:00,
2013-09-29 16:28:00,65.5,60.5,30.01,North,355,4.0,5.0,84,0.00,,,0.00,102,Wunderground v.1.15,2013-09-29 20:28:00,
2013-09-29 16:33:00,65.5,60.2,30.00,NW,310,6.0,7.0,83,0.00,,,0.00,116,Wunderground v.1.15,2013-09-29 20:33:00,
2013-09-29 16:38:00,65.3,60.3,30.00,NW,312,6.0,6.0,84,0.00,,,0.00,123,Wunderground v.1.15,2013-09-29 20:38:00,
2013-09-29 16:43:00,65.3,60.7,30.00,NNE,16,2.0,6.0,85,0.00,,,0.00,114,Wunderground v.1.15,2013-09-29 20:43:00,
2013-09-29 16:48:00,65.4,60.8,30.01,North,355,4.0,6.0,85,0.00,,,0.00,113,Wunderground v.1.15,2013-09-29 20:48:00,
2013-09-29 16:53:00,65.4,60.4,30.00,NW,305,4.0,6.0,84,0.00,,,0.00,111,Wunderground v.1.15,2013-09-29 20:53:00,
2013-09-29 16:58:00,65.3,60.3,30.00,NNW,334,4.0,5.0,84,0.00,,,0.00,100,Wunderground v.1.15,2013-09-29 20:58:00,
2013-09-29 17:03:00,65.1,60.5,30.00,NNW,331,2.0,5.0,85,0.00,,,0.00,95,Wunderground v.1.15,2013-09-29 21:03:00,
2013-09-29 17:08:00,65.1,60.5,30.00,NW,323,3.0,5.0,85,0.00,,,0.00,86,Wunderground v.1.15,2013-09-29 21:08:00,
2013-09-29 17:13:00,65.1,60.5,30.00,North,360,5.0,6.0,85,0.00,,,0.00,81,Wunderground v.1.15,2013-09-29 21:13:00,
2013-09-29 17:18:00,65.1,60.5,30.00,NNE,22,2.0,4.0,85,0.00,,,0.00,86,Wunderground v.1.15,2013-09-29 21:18:00,
2013-09-29 17:23:00,65.0,60.7,30.00,NNE,24,3.0,5.0,86,0.00,,,0.00,90,Wunderground v.1.15,2013-09-29 21:23:00,
2013-09-29 17:28:00,64.8,60.5,30.00,NW,324,4.0,6.0,86,0.00,,,0.00,93,Wunderground v.1.15,2013-09-29 21:28:00,
2013-09-29 17:33:00,64.7,60.7,30.00,NNW,338,3.0,6.0,87,0.00,,,0.00,91,Wunderground v.1.15,2013-09-29 21:33:00,
2013-09-29 17:38:00,64.6,60.6,30.00,NNW,331,5.0,5.0,87,0.00,,,0.00,81,Wunderground v.1.15,2013-09-29 21:38:00,
2013-09-29 17:43:00,64.5,60.5,30.00,NNW,344,3.0,5.0,87,0.00,,,0.00,56,Wunderground v.1.15,2013-09-29 21:43:00,
2013-09-29 17:48:00,64.3,60.0,29.99,North,349,1.0,4.0,86,0.00,,,0.00,49,Wunderground v.1.15,2013-09-29 21:48:00,
2013-09-29 17:53:00,64.1,60.2,30.00,NNW,336,2.0,6.0,87,0.00,,,0.00,40,Wunderground v.1.15,2013-09-29 21:53:00,
2013-09-29 17:58:00,64.0,60.1,30.00,NNW,340,2.0,3.0,87,0.00,,,0.00,39,Wunderground v.1.15,2013-09-29 21:58:00,
2013-09-29 18:03:00,64.1,60.2,30.00,NNW,340,2.0,3.0,87,0.00,,,0.00,37,Wunderground v.1.15,2013-09-29 22:03:00,
2013-09-29 18:08:00,64.0,60.1,30.00,NNW,339,1.0,3.0,87,0.00,,,0.00,26,Wunderground v.1.15,2013-09-29 22:08:00,
2013-09-29 18:14:00,64.0,60.1,30.00,North,11,2.0,3.0,87,0.00,,,0.00,25,Wunderground v.1.15,2013-09-29 22:14:00,
2013-09-29 18:19:00,64.0,60.1,30.00,NNW,331,0.0,2.0,87,0.00,,,0.00,21,Wunderground v.1.15,2013-09-29 22:19:00,
2013-09-29 18:23:00,64.0,60.4,30.00,NNW,331,0.0,2.0,88,0.00,,,0.00,21,Wunderground v.1.15,2013-09-29 22:23:00,
2013-09-29 18:29:00,63.9,60.0,30.00,NNW,342,0.0,1.0,87,0.00,,,0.00,26,Wunderground v.1.15,2013-09-29 22:29:00,
2013-09-29 18:34:00,63.8,59.9,30.00,NNW,342,0.0,1.0,87,0.00,,,0.00,25,Wunderground v.1.15,2013-09-29 22:34:00,
2013-09-29 18:39:00,63.7,59.8,30.00,NNW,342,1.0,1.0,87,0.00,,,0.00,25,Wunderground v.1.15,2013-09-29 22:39:00,
2013-09-29 18:44:00,63.5,59.6,30.00,East,99,0.0,2.0,87,0.00,,,0.00,16,Wunderground v.1.15,2013-09-29 22:44:00,
2013-09-29 18:49:00,63.7,59.8,30.00,ENE,71,1.0,2.0,87,0.00,,,0.00,12,Wunderground v.1.15,2013-09-29 22:49:00,
2013-09-29 18:54:00,63.7,59.8,30.00,NE,48,1.0,3.0,87,0.00,,,0.00,12,Wunderground v.1.15,2013-09-29 22:54:00,
2013-09-29 18:59:00,63.6,60.0,30.00,NE,48,0.0,1.0,88,0.00,,,0.00,21,Wunderground v.1.15,2013-09-29 22:59:00,
2013-09-29 19:04:00,63.7,60.1,30.00,NE,48,2.0,2.0,88,0.00,,,0.00,26,Wunderground v.1.15,2013-09-29 23:04:00,
2013-09-29 19:09:00,63.7,60.1,30.00,NE,47,0.0,1.0,88,0.00,,,0.00,14,Wunderground v.1.15,2013-09-29 23:09:00,
2013-09-29 19:14:00,63.8,60.2,30.00,NE,47,0.0,1.0,88,0.00,,,0.00,16,Wunderground v.1.15,2013-09-29 23:14:00,
2013-09-29 19:19:00,63.7,60.1,30.00,North,355,1.0,3.0,88,0.00,,,0.00,12,Wunderground v.1.15,2013-09-29 23:19:00,
2013-09-29 19:24:00,63.5,59.9,30.01,NW,319,4.0,4.0,88,0.00,,,0.00,7,Wunderground v.1.15,2013-09-29 23:24:00,
2013-09-29 19:29:00,63.4,59.8,30.00,NW,315,0.0,2.0,88,0.00,,,0.00,9,Wunderground v.1.15,2013-09-29 23:29:00,
2013-09-29 19:34:00,63.3,60.0,30.01,NNW,332,3.0,4.0,89,0.00,,,0.00,0,Wunderground v.1.15,2013-09-29 23:34:00,
2013-09-29 19:39:00,63.2,59.9,30.01,NNW,332,2.0,3.0,89,0.00,,,0.00,0,Wunderground v.1.15,2013-09-29 23:39:00,
2013-09-29 19:44:00,63.1,60.1,30.01,NNW,333,3.0,3.0,90,0.00,,,0.00,0,Wunderground v.1.15,2013-09-29 23:44:00,
2013-09-29 19:49:00,63.0,60.0,30.01,NNW,333,0.0,2.0,90,0.00,,,0.00,0,Wunderground v.1.15,2013-09-29 23:49:00,
2013-09-29 19:54:00,63.0,60.0,30.01,NNW,333,0.0,2.0,90,0.00,,,0.00,0,Wunderground v.1.15,2013-09-29 23:54:00,
2013-09-29 19:59:00,62.9,59.9,30.01,NNW,333,1.0,2.0,90,0.00,,,0.00,0,Wunderground v.1.15,2013-09-29 23:59:00,
2013-09-29 20:04:00,63.0,60.0,30.01,NNW,333,0.0,2.0,90,0.00,,,0.00,0,Wunderground v.1.15,2013-09-30 00:04:00,
2013-09-29 20:09:00,63.0,60.0,30.01,NNW,333,0.0,0.0,90,0.00,,,0.00,0,Wunderground v.1.15,2013-09-30 00:09:00,
2013-09-29 20:14:00,62.9,59.6,30.01,NNW,333,0.0,2.0,89,0.00,,,0.00,0,Wunderground v.1.15,2013-09-30 00:14:00,
2013-09-29 20:19:00,62.8,59.5,30.01,NNW,333,1.0,2.0,89,0.00,,,0.00,0,Wunderground v.1.15,2013-09-30 00:19:00,
2013-09-29 20:24:00,62.7,59.4,30.01,NNW,333,0.0,2.0,89,0.00,,,0.00,0,Wunderground v.1.15,2013-09-30 00:24:00,
2013-09-29 20:29:00,62.7,59.4,30.01,NNW,333,0.0,1.0,89,0.00,,,0.00,0,Wunderground v.1.15,2013-09-30 00:29:00,
2013-09-29 20:34:00,62.7,59.4,30.01,NNW,333,1.0,2.0,89,0.00,,,0.00,0,Wunderground v.1.15,2013-09-30 00:34:00,
2013-09-29 20:39:00,62.6,59.3,30.01,NNW,333,0.0,2.0,89,0.00,,,0.00,0,Wunderground v.1.15,2013-09-30 00:39:00,
2013-09-29 20:44:00,62.6,59.3,30.01,NNW,333,0.0,2.0,89,0.00,,,0.00,0,Wunderground v.1.15,2013-09-30 00:44:00,
2013-09-29 20:49:00,62.6,59.3,30.01,NNW,333,0.0,2.0,89,0.00,,,0.00,0,Wunderground v.1.15,2013-09-30 00:49:00,
2013-09-29 20:54:00,62.4,59.1,30.01,NNW,333,1.0,2.0,89,0.00,,,0.00,0,Wunderground v.1.15,2013-09-30 00:54:00,
2013-09-29 20:59:00,62.4,59.1,30.01,NNW,333,0.0,2.0,89,0.00,,,0.00,0,Wunderground v.1.15,2013-09-30 00:59:00,
2013-09-29 21:04:00,62.4,59.1,30.01,NNW,333,1.0,2.0,89,0.00,,,0.00,0,Wunderground v.1.15,2013-09-30 01:04:00,
2013-09-29 21:09:00,62.4,59.1,30.01,NNW,333,0.0,1.0,89,0.00,,,0.00,0,Wunderground v.1.15,2013-09-30 01:09:00,
2013-09-29 21:14:00,62.5,59.5,30.01,NW,318,0.0,2.0,90,0.00,,,0.00,0,Wunderground v.1.15,2013-09-30 01:14:00,
2013-09-29 21:19:00,62.5,59.2,30.01,NW,318,0.0,0.0,89,0.00,,,0.00,0,Wunderground v.1.15,2013-09-30 01:19:00,
2013-09-29 21:24:00,62.6,59.3,30.01,NW,318,1.0,2.0,89,0.00,,,0.00,0,Wunderground v.1.15,2013-09-30 01:24:00,
2013-09-29 21:29:00,62.7,59.7,30.01,NW,318,0.0,0.0,90,0.00,,,0.00,0,Wunderground v.1.15,2013-09-30 01:29:00,
2013-09-29 21:34:00,62.6,59.6,30.01,NW,318,0.0,0.0,90,0.00,,,0.00,0,Wunderground v.1.15,2013-09-30 01:34:00,
2013-09-29 21:39:00,62.6,59.6,30.01,NW,318,0.0,1.0,90,0.00,,,0.00,0,Wunderground v.1.15,2013-09-30 01:39:00,
2013-09-29 21:44:00,62.6,59.6,30.01,NW,318,0.0,1.0,90,0.00,,,0.00,0,Wunderground v.1.15,2013-09-30 01:44:00,
2013-09-29 21:49:00,62.6,59.9,30.01,NW,318,0.0,0.0,91,0.00,,,0.00,0,Wunderground v.1.15,2013-09-30 01:49:00,
2013-09-29 21:54:00,62.7,60.0,30.01,NW,315,0.0,1.0,91,0.00,,,0.00,0,Wunderground v.1.15,2013-09-30 01:54:00,
2013-09-29 21:59:00,62.6,59.9,30.01,NW,315,0.0,0.0,91,0.00,,,0.00,0,Wunderground v.1.15,2013-09-30 01:59:00,
2013-09-29 22:05:00,62.6,59.9,30.01,NW,315,0.0,0.0,91,0.00,,,0.00,0,Wunderground v.1.15,2013-09-30 02:05:00,
2013-09-29 22:10:00,62.5,59.5,30.01,West,279,0.0,2.0,90,0.00,,,0.00,0,Wunderground v.1.15,2013-09-30 02:10:00,
2013-09-29 22:15:00,62.5,59.8,30.01,West,270,0.0,2.0,91,0.00,,,0.00,0,Wunderground v.1.15,2013-09-30 02:15:00,
2013-09-29 22:20:00,62.5,59.8,30.01,West,270,0.0,2.0,91,0.00,,,0.00,0,Wunderground v.1.15,2013-09-30 02:20:00,
2013-09-29 22:25:00,62.4,59.7,30.01,West,269,0.0,2.0,91,0.00,,,0.00,0,Wunderground v.1.15,2013-09-30 02:25:00,
2013-09-29 22:30:00,62.4,59.7,30.01,West,269,0.0,1.0,91,0.00,,,0.00,0,Wunderground v.1.15,2013-09-30 02:30:00,
2013-09-29 22:35:00,62.4,59.7,30.01,WSW,248,1.0,2.0,91,0.00,,,0.00,0,Wunderground v.1.15,2013-09-30 02:35:00,
2013-09-29 22:40:00,62.3,59.6,30.01,WSW,247,0.0,1.0,91,0.00,,,0.00,0,Wunderground v.1.15,2013-09-30 02:40:00,
2013-09-29 22:45:00,62.4,59.7,30.01,WSW,247,1.0,1.0,91,0.00,,,0.00,0,Wunderground v.1.15,2013-09-30 02:45:00,
2013-09-29 22:50:00,62.4,59.7,30.01,WSW,247,0.0,1.0,91,0.00,,,0.00,0,Wunderground v.1.15,2013-09-30 02:50:00,
2013-09-29 22:55:00,62.5,59.8,30.01,WSW,247,0.0,2.0,91,0.00,,,0.00,0,Wunderground v.1.15,2013-09-30 02:55:00,
2013-09-29 23:00:00,62.4,59.7,30.01,SW,225,2.0,3.0,91,0.00,,,0.00,0,Wunderground v.1.15,2013-09-30 03:00:00,
2013-09-29 23:05:00,62.4,59.7,30.02,SW,225,0.0,3.0,91,0.00,,,0.00,0,Wunderground v.1.15,2013-09-30 03:05:00,
2013-09-29 23:10:00,62.3,59.6,30.01,SSW,209,0.0,1.0,91,0.00,,,0.00,0,Wunderground v.1.15,2013-09-30 03:10:00,
2013-09-29 23:15:00,62.3,59.6,30.02,SSW,202,1.0,2.0,91,0.00,,,0.00,0,Wunderground v.1.15,2013-09-30 03:15:00,
2013-09-29 23:20:00,62.3,59.6,30.01,SSW,198,2.0,2.0,91,0.00,,,0.00,0,Wunderground v.1.15,2013-09-30 03:20:00,
2013-09-29 23:25:00,62.3,59.6,30.01,SSW,193,1.0,3.0,91,0.00,,,0.00,0,Wunderground v.1.15,2013-09-30 03:25:00,
2013-09-29 23:30:00,62.2,59.5,30.01,SSW,193,0.0,3.0,91,0.00,,,0.00,0,Wunderground v.1.15,2013-09-30 03:30:00,
2013-09-29 23:35:00,62.2,59.5,30.01,SSW,197,0.0,3.0,91,0.00,,,0.00,0,Wunderground v.1.15,2013-09-30 03:35:00,
2013-09-29 23:40:00,62.2,59.5,30.01,SSW,197,1.0,2.0,91,0.00,,,0.00,0,Wunderground v.1.15,2013-09-30 03:40:00,
2013-09-29 23:45:00,62.2,59.5,30.01,SSW,197,0.0,2.0,91,0.00,,,0.00,0,Wunderground v.1.15,2013-09-30 03:45:00,
2013-09-29 23:50:00,62.2,59.5,30.01,SSW,194,0.0,2.0,91,0.00,,,0.00,0,Wunderground v.1.15,2013-09-30 03:50:00,
2013-09-29 23:55:00,62.2,59.5,30.01,SSW,194,1.0,2.0,91,0.00,,,0.00,0,Wunderground v.1.15,2013-09-30 03:55:00,